Regional Weather Roundup
Issued by NWS

Home | Current Version | Previous Version | Graphics & Text | Print | Product List | Glossary On
Versions: 1 2 3 4 5 6 7 8 9 10 11 12 13 14 15 16 17 18 19 20 21 22 23 24 25 26 27 28 29 30 31 32 33 34 35 36 37 38 39 40 41 42 43 44 45 46 47 48 49 50
000
ASUS45 KABQ 210810
RWRNM
WEATHER ROUNDUP FOR NEW MEXICO
NATIONAL WEATHER SERVICE ALBUQUERQUE NM
200 AM MDT THU AUG 21 2014

NOTE: "FAIR" MEANS FEW OR NO CLOUDS BELOW 12,000 FEET AGL WITH NO
       SIGNIFICANT WEATHER OR OBSTRUCTIONS TO VISION.

      THIS PRODUCT IS RELEASED AS TWO VERSIONS.  ONE VERSION NEAR
      THE TOP OF THE HOUR CONTAINING PRELIMINARY DATA FROM ALBUQUERQUE
      AND OTHER STATIONS.  A FINAL VERSION WITH ADDITIONAL DATA IS
      ISSUED ABOUT 10 MINUTES AFTER THE HOUR.

NMZ501-503-504-510>518-210900-
NORTHWEST PLATEAU/NORTHCENTRAL MOUNTAINS

CITY           SKY/WX    TMP DP  RH WIND       PRES   REMARKS
FARMINGTON     CLEAR     62  39  42 W6        30.12S
LOS ALAMOS     PTCLDY    65  37  35 CALM      30.22F
SANTA FE       PTCLDY    56  42  59 N5        30.15S
TAOS           CLEAR     48  34  57 N5        30.22S
ANGEL FIRE     FAIR      42  37  84 CALM      30.30S

$$
NMZ402-403-502-505>509-210900-
WESTCENTRAL MOUNTAINS/SOUTHWEST MOUNTAINS

CITY           SKY/WX    TMP DP  RH WIND       PRES   REMARKS
GALLUP         PTCLDY    54  38  54 CALM      30.22S
SILVER CITY    CLEAR     64  50  59 N12       30.15F

$$
NMZ407-409-411-412-210900-
SOUTHERN DESERTS

CITY           SKY/WX    TMP DP  RH WIND       PRES   REMARKS
LORDSBURG      FAIR      64  54  68 NW5       30.08S
DEMING         CLEAR     69  51  52 W7        30.06F
LAS CRUCES     PTCLDY    71  50  46 W7        30.06S
HOLLOMAN AFB   PTCLDY    73  46  38 SE5       30.00S
ALAMOGORDO     PTCLDY    72  45  37 CALM      30.02S
T OR C         CLEAR     72  46  39 NW8       30.05F

$$
NMZ519>523-210900-
CENTRAL VALLEYS/CENTRAL HIGHLANDS

CITY           SKY/WX    TMP DP  RH WIND       PRES   REMARKS
ALBUQUERQUE    PTCLDY    68  46  45 SE8       30.09F
DOUBLE EAGLE   PTCLDY    65  41  42 CALM      30.13F
MORIARTY ARPT  FAIR      51  45  78 CALM      30.15F
CLINES CORNERS CLEAR     59  43  55 W9        30.18F
BELEN          PTSUNNY   66  44  45 CALM      30.09S
SOCORRO        FAIR      75  42  30 NW5       30.05F

$$
NMZ524>526-539-540-210900-
SOUTHCENTRAL MOUNTAINS

CITY           SKY/WX    TMP DP  RH WIND       PRES   REMARKS
RUIDOSO        CLEAR     59  46  63 SW8       30.20F

$$
NMZ527>531-210900-
NORTHEAST HIGHLANDS/NORTHEAST PLAINS

CITY           SKY/WX    TMP DP  RH WIND       PRES   REMARKS
LAS VEGAS      CLEAR     57  44  62 NW7       30.15F
RATON          CLEAR     54  48  80 CALM      30.08S
CLAYTON        CLEAR     69  57  65 S12       29.98F

$$
NMZ532>537-210900-
EASTCENTRAL PLAINS

CITY           SKY/WX    TMP DP  RH WIND       PRES   REMARKS
TUCUMCARI      CLEAR     77  57  50 S15G21    29.95S
CANNON AFB     CLEAR     70  62  73 S10       30.00F
CLOVIS AIRPORT   N/A     70  61  73 S9        30.03F

$$
NMZ028-029-538-210900-
SOUTHEAST PLAINS

CITY           SKY/WX    TMP DP  RH WIND       PRES   REMARKS
ROSWELL        CLEAR     74  61  63 SE6       29.95S
ARTESIA        CLEAR     72  59  64 S6        29.96S
CARLSBAD       CLEAR     76  62  62 S6        29.93F
HOBBS          CLEAR     75  61  60 S15       29.99F


$$



USA.gov is the U.S. government's official web portal to all federal, state and local government web resources and services.